Regional Weather Roundup
Issued by NWS

Home | Current Version | Previous Version | Text Only | Print | Product List | Glossary Off
Versions: 1 2 3 4 5 6 7 8 9 10 11 12 13 14 15 16 17 18 19 20 21 22 23 24 25 26 27 28 29 30 31 32 33 34 35 36 37 38 39 40 41 42 43 44 45 46 47 48 49 50

000
ASUS45 KABQ 271710
RWRNM
WEATHER ROUNDUP FOR NEW MEXICO
NATIONAL WEATHER SERVICE ALBUQUERQUE NM
1000 AM MST TUE JAN 27 2015

NOTE: "FAIR" MEANS FEW OR NO CLOUDS BELOW 12,000 FEET AGL WITH NO
       SIGNIFICANT WEATHER OR OBSTRUCTIONS TO VISION.

      THIS PRODUCT IS RELEASED AS TWO VERSIONS.  ONE VERSION NEAR
      THE TOP OF THE HOUR CONTAINING PRELIMINARY DATA FROM ALBUQUERQUE
      AND OTHER STATIONS.  A FINAL VERSION WITH ADDITIONAL DATA IS
      ISSUED ABOUT 10 MINUTES AFTER THE HOUR.

NMZ501-503-504-510>518-271800-
NORTHWEST PLATEAU/NORTHCENTRAL MOUNTAINS

CITY           SKY/WX    TMP DP  RH WIND       PRES   REMARKS
FARMINGTON     CLOUDY    40  26  57 E5        30.36R
LOS ALAMOS     SUNNY     41  28  59 E3        30.41S
SANTA FE       SUNNY     43  25  49 N17       30.37S
TAOS           SUNNY     37  25  60 N3        30.41S
ANGEL FIRE     FAIR      28  21  75 CALM      30.42F

$$
NMZ402-403-502-505>509-271800-
WESTCENTRAL MOUNTAINS/SOUTHWEST MOUNTAINS

CITY           SKY/WX    TMP DP  RH WIND       PRES   REMARKS
GALLUP         MOSUNNY   43  28  55 CALM      30.40R
GRANTS         CLOUDY    36  29  75 CALM      30.43S
SILVER CITY    SUNNY     55  27  33 CALM      30.39S

$$
NMZ407-409-411-412-271800-
SOUTHERN DESERTS

CITY           SKY/WX    TMP DP  RH WIND       PRES   REMARKS
LORDSBURG      FAIR      52  32  46 CALM      30.35S
DEMING         SUNNY     55  32  41 VRB3      30.35S
LAS CRUCES     CLOUDY    54  32  43 CALM      30.37R
HOLLOMAN AFB   SUNNY     50  35  56 CALM      30.35R
ALAMOGORDO     SUNNY     48  32  53 CALM      30.37R
T OR C         SUNNY     50  30  46 S3        30.36R

$$
NMZ519>523-271800-
CENTRAL VALLEYS/CENTRAL HIGHLANDS

CITY           SKY/WX    TMP DP  RH WIND       PRES   REMARKS
ALBUQUERQUE    MOSUNNY   42  28  57 CALM      30.38S
DOUBLE EAGLE   PTSUNNY   45  27  49 N6        30.39R
MORIARTY ARPT  FAIR      42  30  62 CALM      30.38S
CLINES CORNERS SUNNY     48  26  42 W13       30.35S
BELEN          CLOUDY    41  32  69 CALM      30.39R
SOCORRO        FAIR      46  30  54 N9        30.39R

$$
NMZ524>526-539-540-271800-
SOUTHCENTRAL MOUNTAINS

CITY           SKY/WX    TMP DP  RH WIND       PRES   REMARKS
RUIDOSO        SUNNY     54  23  30 NE3       30.40S

$$
NMZ527>531-271800-
NORTHEAST HIGHLANDS/NORTHEAST PLAINS

CITY           SKY/WX    TMP DP  RH WIND       PRES   REMARKS
LAS VEGAS      PTSUNNY   49  24  37 S9        30.33F
RATON          MOSUNNY   45  31  58 NE5       30.30S
CLAYTON        MOSUNNY   62  31  31 W12       30.24S

$$
NMZ532>537-271800-
EASTCENTRAL PLAINS

CITY           SKY/WX    TMP DP  RH WIND       PRES   REMARKS
TUCUMCARI      PTSUNNY   50  35  56 W12       30.27R
CANNON AFB     SUNNY     60  31  33 W7        30.29R
CLOVIS AIRPORT SUNNY     61  34  36 W9        30.29S

$$
NMZ028-029-538-271800-
SOUTHEAST PLAINS

CITY           SKY/WX    TMP DP  RH WIND       PRES   REMARKS
ROSWELL        SUNNY     52  33  48 CALM      30.31R
ARTESIA        SUNNY     50  36  57 N5        30.32S
CARLSBAD       SUNNY     56  34  43 N7        30.30S
HOBBS          SUNNY     63  36  36 CALM      30.30R


$$


USA.gov is the U.S. government's official web portal to all federal, state and local government web resources and services.